Terminal Aerodrome Forecast
Issued by NWS

Home | Current Version | Previous Version | Text Only | Print | Product List | Glossary On
Versions: 1 2 3 4 5 6 7 8 9 10 11 12 13 14 15 16 17 18 19 20 21 22 23 24 25 26 27 28 29 30 31 32
000
FTUS46 KEKA 270542
TAFCEC
TAF
KCEC 270542Z 2706/2806 18008KT P6SM OVC008
     FM270800 18005KT 4SM BR OVC005
     FM271000 VRB03KT 2SM BR OVC002
     FM271900 27008KT 6SM HZ BKN005
     FM272300 21006KT 6SM BR SCT010
     FM280300 17005KT 4SM BR BKN005=

USA.gov is the U.S. government's official web portal to all federal, state and local government web resources and services.